FENGYUN 1C DEB

Satellite information

Favourite Embed

Satellite Type and Status

DEBRISIN ORBIT

Key statistics

Satellite FENGYUN 1C DEB at a glance.

Uptime

9715

Days in orbit

Revolutions

≈ 14.6

Per day

Orbit

SSO

Sun Synchronous Orbit

Inclination

99.0

Latest

Satellite identification and parameters

Extended collection of information and parameters for FENGYUN 1C DEB.

Object identification

Identified? True

Debris? True

Object name: FENGYUN 1C DEB

International designator: 1999-025BSV

Object number (NORAD): 31389

Object ID (CCSDS): 31389

Country: PEOPLES REPUBLIC OF CHINA (PRC)

Current information (Y/N): Y

RCS size: SMALL

Orbital parameters

Period: 98.568 minutes

Inclination: 99.0429 deg

SMA: 7068.329 km

Apoapsis: 710.766 km

Periapsis: 669.621 km

RAAN: 150.7001 deg

Eccentricy: 0.00291056

Argument of periapsis: 192.9916 deg

Mean anomaly: 197.0182 deg

Mean motion: 14.60924151 rev/day

Mean motion (dot): 0.00053066 rev/day2

B* drag term: 0.01070091 1/REarth

Two-line elements (TLE)

Creation date: Dec. 11, 2025, 7:14 p.m.

Reference frame: TEME

Reference center: EARTH

Epoch: Dec. 11, 2025, 10:14 a.m. UTC

TLE line 0: 0 FENGYUN 1C DEB

TLE line 1: 1 31389U 99025BSV 25345.42707366 .00053066 00000-0 10701-1 0 9993

TLE line 2: 2 31389 99.0429 150.7001 0029106 192.9916 197.0182 14.60924151964783

Live tracking on map

Real-time ground track for satellite FENGYUN 1C DEB.

In-orbit conjunctions

A list of the most updated potential collisions computed for object FENGYUN 1C DEB.

Target Orbit TCA Probability of collision Miss distance Type
CZ-6A DEB LEO 2025-02-03 04:17:54 0.0001164381 473.0 (m) DEBRIS
COSMOS 2251 DEB LEO 2024-11-16 10:41:49 0.0001488834 866.0 (m) DEBRIS

Associated space launch

Chinese polar orbiting meteorological satellite

FENGYUN 1C DEB was lifted into orbit during the mission ‘Long March 4B | Feng Yun 1C’, on board a Long March 4B space rocket.

The launch took place on May 10, 1999, 1:33 a.m. from Launch Complex 7.

For more information about the launch, click the button.

Launch to space Long March 4B | Feng Yun 1C
Long March 4B | Feng Yun 1C

Agency: N/A

Status: Launch Successful

Launch date: May 10, 1999, 1:33 a.m. UTC

Rocket: Long March 4B

Launch pad: Launch Complex 7

Location: Taiyuan Satellite Launch Center, People's Republic of China

...

Latest news about this satellite

There are no fresh news available about this satellite. Check back as we update our databases every day.


Newsletter sign-up

Weekly statistics, charts and insights to help you stay on top of the space industry.